[[{"header":{"parameterUnit":"m.s-1","parameterCategory":1,"la1":30.2991,"la2":30.254,"lo1":-89.0895,"lo2":-89.0444,"dy":0.0017,"dx":0.0017,"nx":28,"ny":28,"refTime":"2025-07-29T03:00:00:Z","depth":0,"parameterNumber":2,"parameterNumberName":"U-component_of_WINDS"},"data":[0,0,0,0,0,0,0,0,0,0,0,0,0,0,0,0,0,0,0,0,0,0,0,0,0,0,0,0,0,0,0,0,0,0,0,0,0,0,0,0,0,0,0,0,0,0,0,0,0,0,0,0,0,0,0,0,0,0,2.0567,2.0568,0,2.0638,2.0639,2.064,2.0597,2.0595,2.0593,2.0591,2.0667,2.0671,2.0675,0,0,0,0,0,0,0,0,0,0,0,0,0,2.0399,2.0402,2.0567,2.0568,2.0568,2.0638,2.0639,2.064,2.0598,2.0595,2.0593,2.059,2.0666,2.0671,2.0675,0,0,0,0,0,0,0,0,0,0,0,0,0,2.0471,2.0403,2.0567,2.0556,2.0555,2.0638,2.0639,2.064,2.0598,2.0595,2.0592,2.0589,2.0664,2.067,2.0676,2.0774,0,0,2.0694,2.0697,0,0,0,0,0,0,0,0,2.0467,2.0477,2.0556,2.0557,2.0556,2.0605,2.0607,2.0685,2.0599,2.0582,2.0591,2.0588,2.0649,2.0656,2.0676,2.0777,2.0781,2.0694,2.0698,2.0701,2.0702,0,0,0,0,0,0,0,2.0462,2.0474,2.0595,2.0558,2.0558,2.0549,2.0556,2.0622,2.0632,2.0583,2.058,2.0589,2.0649,2.0671,2.0678,2.0782,2.0694,2.07,2.0703,2.0705,2.097,2.0973,0,0,0,0,0,0,2.0457,2.047,2.0593,2.0597,2.0503,2.0554,2.0562,2.0593,2.0631,2.0634,2.0592,2.0587,2.0662,2.0671,2.068,2.0799,2.0701,2.0706,2.0709,2.0966,2.097,2.0974,0,0,0,0,0,0,2.0454,2.0469,2.059,2.0533,2.0548,2.056,2.0596,2.0596,2.0618,2.0638,2.064,2.0612,2.066,2.0672,2.0751,2.0801,2.0709,2.0714,2.0962,2.0967,2.0972,2.1037,0,0,0,0,0,0,2.0449,2.0468,2.0504,2.0534,2.0551,2.0658,2.0599,2.06,2.0628,2.0622,2.0657,2.066,2.0659,2.0743,2.0757,2.0808,2.0719,2.0958,2.0964,2.0971,2.103,2.1043,2.1055,0,0,0,0,0,2.0443,2.0519,2.0506,2.0521,2.0596,2.0661,2.0671,2.0667,2.0632,2.0669,2.0682,2.0659,2.0794,2.0751,2.0767,2.082,2.0954,2.0962,2.097,2.1025,2.1041,2.1054,0,0,0,0,0,0,2.0494,2.0523,2.0508,2.0595,2.0626,2.0654,2.07,2.0684,2.0725,2.0719,2.0713,2.0721,2.0804,2.082,2.0772,2.0918,2.0869,2.088,2.0905,2.092,2.0932,2.0927,2.0724,0,0,0,0,0,2.0516,2.0565,2.0588,2.0663,2.0679,2.0687,2.0715,2.071,2.0742,2.0755,2.0773,2.0806,2.0856,2.0889,2.0936,2.1032,2.1041,2.1077,2.1089,2.1099,2.1109,2.1164,2.1181,2.1,2.1,2.1,0,0,2.0561,2.0582,2.0614,2.0674,2.0697,2.075,2.0698,2.0756,2.0796,2.0764,2.084,2.0855,2.0892,2.0981,2.1021,2.0996,2.1162,2.1109,2.1117,2.1122,2.1174,2.1191,2.1206,2.1005,2.1004,2.1003,0,0,2.0669,2.069,2.0755,2.078,2.0816,2.0821,2.0837,2.0868,2.0877,2.0953,2.0931,2.0979,2.1064,2.1092,2.1117,2.124,2.1221,2.1255,2.132,2.1373,2.1387,2.14,2.1445,2.1462,2.1265,2.1265,2.1265,0,2.072,2.0798,2.0792,2.0852,2.088,2.0853,2.0921,2.0945,2.0995,2.1016,2.0988,2.1096,2.1119,2.1215,2.1245,2.1266,2.1286,2.1251,2.1386,2.1398,2.141,2.1453,2.147,2.1269,2.1269,2.1268,2.1268,0,2.086,2.0915,2.0964,2.1012,2.1046,2.111,2.1115,2.115,2.1142,2.1152,2.1231,2.1258,2.131,2.1333,2.1326,2.1429,2.1413,2.1386,2.1336,2.1432,2.1472,2.1489,2.1275,2.1274,2.1273,2.1272,0,0,2.1002,2.1047,2.1066,2.1088,2.1127,2.117,2.1233,2.1284,2.1316,2.1352,2.1406,2.148,2.1456,2.1485,2.1481,2.1528,2.1626,2.1495,2.1496,2.152,2.1744,2.1765,2.1784,2.1613,2.1617,2.1619,2.1741,0,2.1114,2.1224,2.1221,2.1324,2.1376,2.1353,2.1408,2.1439,2.145,2.1497,2.151,2.1563,2.1526,2.1543,2.1589,2.1604,2.1671,2.1595,2.1666,2.1669,2.1658,2.1805,2.1826,2.194,2.1757,2.1759,2.1761,0,2.1259,2.1299,2.1407,2.1441,2.1462,2.1512,2.156,2.1605,2.164,2.1645,2.1679,2.1669,2.1736,2.1684,2.1778,2.1726,2.1756,2.1768,2.1772,2.1779,2.1721,2.1817,2.1976,2.1994,2.1786,2.1784,2.1782,0,2.1353,2.1435,2.1511,2.1531,2.1571,2.1607,2.1626,2.1658,2.169,2.1733,2.1754,2.1804,2.1832,2.1872,2.1876,2.1838,2.1972,2.192,2.1979,2.1979,2.2008,2.2006,2.2176,2.2026,2.2026,2.2025,2.2025,0,2.1479,2.1546,2.1554,2.16,2.1676,2.1674,2.1749,2.1765,2.1795,2.1846,2.1829,2.1878,2.188,2.193,2.1935,2.2013,2.2025,2.2033,2.2033,2.2034,2.2034,2.2054,2.2046,2.203,2.2029,2.2028,2.2027,0,2.1596,2.1604,2.1685,2.1717,2.1727,2.1782,2.181,2.1856,2.1866,2.1931,2.1946,2.1962,2.2021,2.2029,2.2098,2.2101,2.2196,2.2187,2.2183,2.2182,2.2242,2.2237,2.243,2.2457,2.2289,2.229,2.2292,0,2.1676,2.1728,2.1766,2.1798,2.1819,2.1871,2.1904,2.1905,2.194,2.1986,2.2026,2.2083,2.2129,2.2224,2.2243,2.2297,2.229,2.2355,2.2298,2.2299,2.2293,2.229,2.2296,2.2366,2.2368,2.2369,2.237,0,2.1818,2.182,2.1867,2.1916,2.1956,2.1995,2.2031,2.2059,2.2065,2.2106,2.2165,2.2201,2.2271,2.2329,2.2382,2.2403,2.2389,2.2388,2.2405,2.2407,2.2403,2.2408,2.2214,2.2384,2.2382,2.2381,2.2381,2.238,2.192,2.1966,2.2,2.2054,2.2082,2.2117,2.2162,2.2178,2.2227,2.2285,2.2282,2.2349,2.2386,2.2456,2.2481,2.2534,2.2513,2.2537,2.2544,2.255,2.2556,2.2394,2.2544,2.2543,2.2543,2.2543,2.2543,0,2.2063,2.2084,2.2133,2.2185,2.2229,2.221,2.2251,2.2288,2.2346,2.2382,2.2427,2.2497,2.2554,2.2578,2.2634,2.2672,2.2667,2.2687,2.2685,2.269,2.2571,2.2551,2.269,2.269,2.269,2.269,2.269,2.269,2.2142,2.2218,2.2225,2.2316,2.2337,2.2401,2.2426,2.246,2.2488,2.2566,2.2613,2.2628,2.266,2.2719,2.2771,2.2777,2.2799,2.2822,2.2825,2.2713,2.2698,2.2684,2.2666,2.2827,2.2827,2.294,2.2941,2.2942]},{"header":{"parameterUnit":"m.s-1","parameterCategory":1,"la1":30.2991,"la2":30.254,"lo1":-89.0895,"lo2":-89.0444,"dy":0.0017,"dx":0.0017,"nx":28,"ny":28,"refTime":"2025-07-29T03:00:00:Z","depth":0,"parameterNumber":3,"parameterNumberName":"V-component_of_WINDS"},"data":[0,0,0,0,0,0,0,0,0,0,0,0,0,0,0,0,0,0,0,0,0,0,0,0,0,0,0,0,0,0,0,0,0,0,0,0,0,0,0,0,0,0,0,0,0,0,0,0,0,0,0,0,0,0,0,0,0,0,-0.6775,-0.6774,0,-0.675,-0.675,-0.675,-0.6755,-0.6756,-0.6756,-0.6757,-0.6728,-0.6727,-0.6725,0,0,0,0,0,0,0,0,0,0,0,0,0,-0.6821,-0.682,-0.6775,-0.6774,-0.6774,-0.675,-0.675,-0.675,-0.6755,-0.6756,-0.6756,-0.6757,-0.6728,-0.6727,-0.6725,0,0,0,0,0,0,0,0,0,0,0,0,0,-0.6799,-0.682,-0.6775,-0.6774,-0.6774,-0.675,-0.675,-0.675,-0.6755,-0.6756,-0.6756,-0.6757,-0.6729,-0.6727,-0.6725,-0.67,0,0,-0.672,-0.6719,0,0,0,0,0,0,0,0,-0.68,-0.6797,-0.6774,-0.6774,-0.6774,-0.6757,-0.6756,-0.6733,-0.6755,-0.6762,-0.6757,-0.6757,-0.6737,-0.6734,-0.6728,-0.6699,-0.6697,-0.672,-0.6718,-0.6718,-0.6717,0,0,0,0,0,0,0,-0.6802,-0.6799,-0.6765,-0.6774,-0.6774,-0.6773,-0.6771,-0.6752,-0.6745,-0.6761,-0.6762,-0.6759,-0.6736,-0.673,-0.6727,-0.6697,-0.672,-0.6718,-0.6717,-0.6716,-0.6644,-0.6643,0,0,0,0,0,0,-0.6804,-0.68,-0.6766,-0.6764,-0.6789,-0.6772,-0.6769,-0.6761,-0.6746,-0.6744,-0.6758,-0.6759,-0.6732,-0.6729,-0.6726,-0.6695,-0.6718,-0.6716,-0.6715,-0.6644,-0.6643,-0.6642,0,0,0,0,0,0,-0.6805,-0.6801,-0.6767,-0.6782,-0.6778,-0.677,-0.6761,-0.676,-0.6754,-0.6744,-0.6742,-0.6753,-0.6733,-0.6729,-0.6706,-0.6694,-0.6715,-0.6714,-0.6645,-0.6644,-0.6643,-0.6632,0,0,0,0,0,0,-0.6807,-0.6802,-0.6793,-0.6782,-0.6777,-0.6749,-0.6761,-0.6759,-0.6751,-0.6752,-0.6738,-0.6736,-0.6733,-0.6709,-0.6705,-0.6692,-0.6712,-0.6647,-0.6645,-0.6643,-0.6633,-0.663,-0.6628,0,0,0,0,0,-0.6808,-0.6791,-0.6793,-0.6789,-0.6766,-0.6748,-0.6745,-0.6743,-0.675,-0.6741,-0.6734,-0.6737,-0.6696,-0.6707,-0.6702,-0.6688,-0.6647,-0.6645,-0.6643,-0.6634,-0.6631,-0.6628,0,0,0,0,0,0,-0.68,-0.6789,-0.6791,-0.677,-0.676,-0.6749,-0.6737,-0.6739,-0.6726,-0.6727,-0.6724,-0.672,-0.6697,-0.669,-0.6703,-0.6662,-0.6672,-0.6669,-0.6667,-0.6664,-0.6661,-0.6663,-0.6711,0,0,0,0,0,-0.6795,-0.6783,-0.6774,-0.6755,-0.675,-0.6744,-0.6736,-0.6735,-0.6724,-0.672,-0.6711,-0.6699,-0.6684,-0.6673,-0.6658,-0.6632,-0.6628,-0.662,-0.6617,-0.6615,-0.6612,-0.6596,-0.6592,-0.6636,-0.6636,-0.6636,0,0,-0.6786,-0.6779,-0.6771,-0.6753,-0.6745,-0.673,-0.6741,-0.6725,-0.6713,-0.6717,-0.6695,-0.6688,-0.6675,-0.665,-0.6638,-0.6643,-0.6599,-0.6613,-0.6611,-0.6609,-0.6594,-0.6589,-0.6586,-0.6635,-0.6635,-0.6635,0,0,-0.6761,-0.6755,-0.6739,-0.6731,-0.6719,-0.6715,-0.6711,-0.6699,-0.6695,-0.6674,-0.6676,-0.6661,-0.6634,-0.6624,-0.6615,-0.6585,-0.6587,-0.658,-0.6566,-0.655,-0.6546,-0.6543,-0.6531,-0.6527,-0.6578,-0.6578,-0.6578,0,-0.6751,-0.673,-0.6729,-0.6713,-0.6705,-0.6708,-0.669,-0.6682,-0.6665,-0.6659,-0.6665,-0.6631,-0.6622,-0.6594,-0.6586,-0.6579,-0.6573,-0.6582,-0.6547,-0.6544,-0.6541,-0.6529,-0.6525,-0.6577,-0.6577,-0.6577,-0.6577,0,-0.6717,-0.6702,-0.669,-0.6675,-0.6665,-0.6648,-0.6643,-0.6633,-0.6633,-0.6627,-0.6604,-0.6593,-0.6576,-0.6569,-0.6568,-0.654,-0.6543,-0.6548,-0.6559,-0.6536,-0.6525,-0.6521,-0.6576,-0.6576,-0.6576,-0.6576,0,0,-0.6686,-0.6671,-0.6666,-0.6659,-0.6645,-0.6633,-0.6615,-0.6599,-0.659,-0.6578,-0.6562,-0.6539,-0.6543,-0.6533,-0.6531,-0.6517,-0.6492,-0.6523,-0.6523,-0.6517,-0.6458,-0.6454,-0.6449,-0.6493,-0.6492,-0.6491,-0.6459,0,-0.6659,-0.663,-0.6628,-0.6601,-0.6586,-0.6588,-0.6573,-0.6562,-0.6556,-0.6542,-0.6535,-0.6518,-0.6526,-0.6519,-0.6506,-0.6498,-0.648,-0.65,-0.6476,-0.6475,-0.6479,-0.6443,-0.6439,-0.6408,-0.6454,-0.6454,-0.6453,0,-0.6624,-0.6612,-0.6584,-0.6571,-0.6565,-0.6551,-0.6535,-0.6522,-0.6509,-0.6506,-0.6494,-0.6493,-0.6473,-0.6485,-0.6456,-0.6469,-0.6459,-0.6453,-0.6452,-0.6449,-0.6462,-0.6438,-0.6399,-0.6394,-0.6447,-0.6447,-0.6448,0,-0.6603,-0.658,-0.6559,-0.6553,-0.6538,-0.6528,-0.6521,-0.6509,-0.6499,-0.6484,-0.6477,-0.646,-0.6451,-0.6437,-0.643,-0.644,-0.6401,-0.6412,-0.6396,-0.6396,-0.6387,-0.6388,-0.6345,-0.6382,-0.6382,-0.6382,-0.6382,0,-0.6573,-0.6555,-0.6549,-0.6537,-0.6516,-0.6513,-0.6492,-0.6485,-0.6474,-0.6459,-0.6459,-0.6444,-0.6438,-0.6421,-0.6416,-0.6392,-0.6388,-0.6383,-0.6382,-0.6383,-0.6383,-0.6375,-0.6377,-0.6381,-0.6381,-0.6382,-0.6382,0,-0.6546,-0.6542,-0.6519,-0.6507,-0.6504,-0.6489,-0.6478,-0.6464,-0.6459,-0.6439,-0.6434,-0.6425,-0.6405,-0.6398,-0.6374,-0.637,-0.6341,-0.6342,-0.6346,-0.6346,-0.6329,-0.633,-0.6279,-0.6271,-0.6315,-0.6314,-0.6314,0,-0.6526,-0.6513,-0.6499,-0.649,-0.6483,-0.6467,-0.6457,-0.6453,-0.6442,-0.6426,-0.6414,-0.6395,-0.6379,-0.6347,-0.6337,-0.6318,-0.6317,-0.6301,-0.6315,-0.6315,-0.6316,-0.6316,-0.6314,-0.6298,-0.6298,-0.6297,-0.6297,0,-0.6492,-0.649,-0.6476,-0.6461,-0.6449,-0.6437,-0.6425,-0.6416,-0.641,-0.6397,-0.6378,-0.6366,-0.6341,-0.6322,-0.6302,-0.6293,-0.6293,-0.6293,-0.6288,-0.6288,-0.629,-0.6287,-0.6338,-0.6294,-0.6294,-0.6294,-0.6295,-0.6295,-0.6467,-0.6454,-0.6443,-0.6427,-0.6417,-0.6406,-0.6392,-0.6385,-0.637,-0.635,-0.6349,-0.6327,-0.6312,-0.6286,-0.6276,-0.6258,-0.6262,-0.6255,-0.6253,-0.6251,-0.6249,-0.6294,-0.6254,-0.6254,-0.6255,-0.6255,-0.6255,0,-0.6431,-0.6424,-0.6409,-0.6393,-0.638,-0.6383,-0.6369,-0.6357,-0.6339,-0.6326,-0.6311,-0.6287,-0.6268,-0.6256,-0.6236,-0.6223,-0.6223,-0.6218,-0.6218,-0.6216,-0.6247,-0.6253,-0.6219,-0.6219,-0.6219,-0.6219,-0.6219,-0.6219,-0.6411,-0.639,-0.6386,-0.6359,-0.6352,-0.6332,-0.6324,-0.6312,-0.6302,-0.6276,-0.626,-0.6253,-0.624,-0.6219,-0.62,-0.6197,-0.6189,-0.6183,-0.618,-0.621,-0.6214,-0.6217,-0.6223,-0.6182,-0.6182,-0.615,-0.615,-0.6149]}]]